Regional Weather Roundup
Issued by NWS Wakefield, VA

Home | Current Version | Previous Version | Graphics & Text | Print | Product List | Glossary On
Versions: 1 2 3 4 5 6 7 8 9 10 11 12 13 14 15 16 17 18 19 20 21 22 23 24 25 26 27 28 29 30 31 32 33 34 35 36 37 38 39 40 41 42 43 44 45 46 47 48 49 50
000
ASUS41 KAKQ 261114
RWRAKQ

REGIONAL WEATHER ROUNDUP
NATIONAL WEATHER SERVICE WAKEFIELD VA
700 AM EDT THU MAR 26 2015

Note: "fair" indicates few or no clouds below 12,000 feet with no
significant weather and/or obstructions to visibility. * = Denotes
station may not report precipitation (e.g., rain,snow,etc.),
thunder or fog.

VAZ042-051-052>054-056-261200-
NORTHERN VIRGINIA

CITY           SKY/WX    TMP DP  RH WIND       PRES   REMARKS
WASH NATIONAL  CLOUDY    52  40  63 S10       29.98F
DULLES         MOCLDY    53  43  68 S10       29.95F
FORT BELVOIR   CLOUDY    48  41  76 E5        29.98F
QUANTICO       CLOUDY    50  42  74 S14       30.00F
FREDERICKSBRG* CLOUDY    51  42  70 SE6       29.98F
STAFFORD*      CLOUDY    49  38  67 CALM      30.02F
WARRENTON      CLOUDY    55  49  80 S6        29.96F
CULPEPER*      CLOUDY    54  45  71 S5        29.97F
MANASSAS*      CLOUDY    54  45  71 S3        29.96F
LEESBURG*      PTCLDY    39  37  93 S5        29.95F
WINCHESTER     CLEAR     37  34  87 CALM      29.91F FOG
FRONT ROYAL*   FAIR      54  50  87 S7        29.90F
LURAY*         CLOUDY    55  52  88 SW3       29.93F
$$

VAZ048-049-060>072-079>083-261200-
CENTRAL AND SOUTH CENTRAL VIRGINIA

CITY           SKY/WX    TMP DP  RH WIND       PRES   REMARKS
RICHMOND       CLOUDY    53  46  77 CALM      29.99F
CHESTERFIELD*  CLOUDY    52  36  54 CALM      29.99F
PETERSBURG*    CLOUDY    57  56  95 SE5       29.98F FOG
HANOVER        CLOUDY    47  45  93 CALM      30.00F
TAPPAHANNOCK*  CLOUDY    51  42  72 CALM      30.01F
QUINTON*       CLOUDY    52  50  93 MISG      29.99F
CHARLOTTSVILLE CLOUDY    51  44  77 S6        29.96F
GORDONSVILLE*  CLOUDY    49  42  77 CALM      29.97F
ORANGE*        LGT RAIN  50  43  76 CALM      29.98F
LOUISA*        CLOUDY    52  43  71 CALM      29.97F
BUMPASS*       CLOUDY    48  40  72 CALM      29.99F
FARMVILLE*     RAIN      49  49 100 CALM      29.97F
CREWE*         CLOUDY    50  46  88 MISG      29.96F
FORT PICKETT*  CLOUDY    55  54  97 S12       29.97F
CHASE CITY*    CLOUDY    61  61 100 SE14G25   29.96F
CLARKSVILLE*   CLOUDY    54  54 100 E6        29.97F
SOUTH HILL*    CLOUDY    60  60  98 S12       30.03F
LAWRENCEVILLE* CLOUDY    60  60 100 S7G17     29.99S
EMPORIA*       FLURRIES  59  59 100 SE7G17    30.02S
$$

VAZ088>098-261200-
SOUTHEAST VIRGINIA

CITY           SKY/WX    TMP DP  RH WIND       PRES   REMARKS
NORFOLK        PTCLDY    63  57  81 S13G21    30.02F
VIRGINIA BEACH MOCLDY    66  58  75 S12G20    30.02F
NORFOLK NAVAL  MOCLDY    67  58  72 S9G20     30.03F
WEST POINT*    MOCLDY    56  54  92 SE3       30.02F VSB 1/4
SALUDA*        CLOUDY    56  55  97 S6        30.00F VSB 1
NEWPORT NEWS   MOCLDY    65  58  78 S9        30.02F
LANGLEY AFB    PTCLDY    62  58  87 S8        30.01F
FORT EUSTIS    MOCLDY    61  61 100 S7        29.98F
WILLIAMSBURG*  MOCLDY    57  55  94 SE5       30.01F
HR EXEC AP*    FAIR      63  57  82 S9        30.03S
FRANKLIN*      CLOUDY    62  59  90 S5        30.02F
WAKEFIELD      MOCLDY    61  59  93 S5        30.00F
$$

VAZ020-022-025-037-045-261200-
WEST CENTRAL AND SOUTHWEST VIRGINIA

CITY           SKY/WX    TMP DP  RH WIND       PRES   REMARKS
STAUNTON*      CLOUDY    52  48  84 S5        29.96F
WAYNESBORO*    CLOUDY    46  46  99 CALM      29.95F
HOT SPRINGS VA MOCLDY    52  52 100 SW16G24   29.95F
LYNCHBURG      LGT RAIN  48  47  96 CALM      29.98F
DANVILLE       LGT RAIN  50  49  96 NW3       29.98F
SOUTH BOSTON*  CLOUDY    49  47  95 CALM      29.97F
MARTINSVILLE   DRIZZLE   50  50 100 CALM      30.00S
ROANOKE        CLOUDY    49  43  80 S3        29.98F
BLACKSBURG     CLOUDY    53  50  90 CALM      29.99F
DUBLIN*        CLOUDY    56  56  98 CALM      29.96F
MARION*        PTCLDY    57  51  79 N6        29.96F
HILLSVILLE*    CLOUDY    53  53 100 S6        29.96F FOG
RICHLANDS*     FAIR      57  49  74 S7G17     29.93S
WISE*          MOCLDY    55  52  88 SW9       29.94S
ABINGDON*      CLOUDY    57  53  86 NW3       29.94R
$$

MDZ021>025-VAZ099-100-261200-
SOUTHERN MARYLAND AND THE DELMARVA PENINSULA

CITY           SKY/WX    TMP DP  RH WIND       PRES   REMARKS
PATUXENT RIVER CLOUDY    48  42  80 CALM      30.01S
BAY BRIDGE APT   N/A     45  41  87 SE8       29.99F
LEONARDTOWN    CLOUDY    48  39  71 CALM      30.02S
DOVER          CLOUDY    47  47 100 S6        29.96F FOG
GEORGETOWN     RAIN      53  53 100 CALM      30.02F FOG
EASTON         CLOUDY    48  48 100 S3        30.03F
CAMBRIDGE      CLOUDY    52  48  87 S3        30.01S
SALISBURY      LGT RAIN N/A N/A N/A CALM      30.02S
OCEAN CITY     CLOUDY    51  50  96 SW10      30.04S
WALLOPS ISLAND CLOUDY    51  50  96 SW12      30.04F
ACCOMACK*      CLOUDY    54  50  87 S7        30.04R
$$

NCZ012>017-030>032-261200-
NORTH CENTRAL AND EASTERN NORTH CAROLINA

CITY           SKY/WX    TMP DP  RH WIND       PRES   REMARKS
ROANOKE RAPIDS DRIZZLE   61  61 100 S6        30.01R
RALEIGH        CLOUDY    63  61  93 S10       29.98F
ELIZABETH CITY CLOUDY    63  57  81 S9        30.05F
AHOSKIE*       CLOUDY    64  60  86 S12       30.02F
EDENTON*       CLOUDY    63  58  84 S10G16    30.05S
CURRITUCK*     CLOUDY    63  56  80 S5        30.05F
KILL DEVIL HLS CLOUDY    62  57  82 S8        30.06S
MANTEO         CLOUDY    58  55  89 S9        30.07S
CAPE HATTERAS  CLOUDY    64  56  75 S21G28    30.08F
TARBORO*       DRIZZLE   64  61  93 SE6       30.02F
GOLDSBORO      CLOUDY    66  66 100 SE9       29.97F
WASHINGTON     CLOUDY    64  60  85 SE8       30.03F
GREENVILLE     CLOUDY    64  63  94 S8        30.03F
NEW BERN       CLOUDY    68  61  78 S13G21    30.04F
WILMINGTON     CLOUDY    67  64  90 SE8       30.01F
$$

VAZ048-261200-
ELSEWHERE

CITY           SKY/WX    TMP DP  RH WIND       PRES   REMARKS
HARRISBURG PA  MOCLDY    35  32  88 CALM      29.94F
BALTIMORE      CLOUDY    44  38  79 CALM      29.97F
ANNAPOLIS      CLOUDY    46  39  76 S7        29.98F
ANDREWS AFB    CLOUDY    50  41  71 S9        29.97F
PHILADELPHIA   MOCLDY    40  39  97 CALM      30.00F FOG
HENDERSON NC   MOCLDY    60  58  92 S8        29.98F
GREENSBORO     CLOUDY    54  54 100 CALM      29.96F FOG
ROCKY MOUNT    CLOUDY    64  63  96 VRB6      30.00S
$$

VAZ100-261200-
MARINE

STATION/POSITION TIME  TEMP    WIND        PRES    WAVE   SWELL
                       AIR SEA DIR/SP/G            HT/PER HT/PER
                 (UTC) (F)     (DEG/KT/KT) (MB)    (FT/S) (FT/S)
BRANDYWINE LGT   1000   47 39              1016.9F
CAPE MAY NJ      1000   47 41              1016.4F
LEWES DE         1000   55 40              1016.6F
15NM E FENWICK I 1050   44 40              1017.3R   4/ 6
OCEAN-CITY-INLET 1000   44 39              1017.1F
WACHAPREAGUE VA  1000   50 49              1017.3F
THOMAS POINT MD  1100                        N/A
COVE POINT MD    1000   43                 1016.4F
SOLOMONS ISLAND  1000      40                N/A
BISHOPS HEAD MD  1006          120/  3/  5   N/A
PINEY POINT MD   1006           80/  3/  4   N/A
CAMBRIDGE MD     1000   48 42              1016.4F
LEWISETTA VA     1000   47 45              1016.1F
RAPPAHANNOCK LGT 1000                      1017.0F
STINGRAY PT      1100   47 44  150/  6/  6   N/A
YORK RVR RNG VA  1000   55                 1016.0F
YORKTOWN VA      1000   61 45              1016.1F
DOMINION TERM VA 1000   59                 1016.9F
KIPTOPEKE VA     1000      49                N/A
CHES BAY BRIDGE  1000   62 43              1016.5F
CAPE HENRY VA    1000   63                 1015.8F
CHESAPEAKE LGHT  1000   50     190/ 25/ 26 1017.3F
WILLOUBY STN VA  1000   62                 1017.3F
S CRANEY ISL VA  1000                      1017.0F
CAPE HENRY BUOY  1028      40                N/A     3/ 7
1ST LANDING BUOY 1100   55     200/ 12/ 16 1016.3F   1/ 3
OFFSHORE WE BUOY 1011      41                N/A     4/ 7   2/ 7
64NM E OF VA BCH 1050   59 53  180/ 14/ 14 1018.0R   5/ 6   3/ 6
DUCK PIER NC     1000   64 44              1016.9F
44056 DUCK FRF   1011      43                N/A     4/ 7
OREGON INLET NC  1000   58 51              1018.6F
HATTERAS NC      1000   65 56              1019.0F
CAPE LOOKOUT NC  1100   65     150/ 18/ 19 1017.3F
$$


USA.gov is the U.S. government's official web portal to all federal, state and local government web resources and services.